Simultaneous Nadir Overpasses (SNOs) Predictions

Prediction of SNOs between AQUA and NOAA-19 Satellite Orbit:

Table of predicted SNOs for the next 14.0 days since TLE Epoch: 1/30/2021
Index Date (AQUA) Time (AQUA) Lat,Lon (AQUA) SZA (AQUA ) Date (NOAA-19) Time (NOAA-19) Lat,Lon (NOAA-19) SZA (NOAA-19 ) Distance(km) Time Diff (sec)
1 01/30/2021 07:05:53 79.18, 48.70 97.92 01/30/2021 07:04:47 79.16, 48.81 97.92 2.86 66
2 01/30/2021 07:55:20 -79.20,-143.77 82.07 01/30/2021 07:55:42 -79.19,-143.72 82.09 1.54 22
3 02/01/2021 13:29:04 79.16, -47.00 97.27 02/01/2021 13:28:59 79.19, -46.94 97.29 3.03 5
4 02/03/2021 19:02:49 -79.17, 49.54 83.38 02/03/2021 19:02:09 -79.15, 49.52 83.38 2.09 40
5 02/03/2021 19:52:16 79.19,-142.96 96.65 02/03/2021 19:53:12 79.18,-142.98 96.62 1.25 56
6 02/06/2021 00:36:32 79.14, 146.25 95.93 02/06/2021 00:35:24 79.15, 146.35 95.95 2.35 68
7 02/06/2021 01:25:59 -79.15, -46.18 84.07 02/06/2021 01:26:20 -79.18, -46.15 84.06 3.08 21
8 02/08/2021 06:59:44 79.18, 50.25 95.27 02/08/2021 06:59:37 79.14, 50.28 95.24 3.90 7
9 02/10/2021 12:33:28 -79.15, 147.00 85.50 02/10/2021 12:32:47 -79.14, 147.08 85.49 1.62 41
10 02/10/2021 13:22:55 79.17, -45.52 94.54 02/10/2021 13:23:49 79.16, -45.54 94.51 1.59 54
11 02/12/2021 18:07:12 79.14,-116.37 93.76 02/12/2021 18:06:02 79.13,-116.25 93.77 2.65 70



Historial Predications of SNOs between AQUA and NOAA-19
